Location: Helsinki
(60.1699°N, 24.9384°E)
Time: 20:53:20
(UTC+02:00)

Transit 4A - Pass Details

Date: 29 October 2020
Orbit: 862 x 982 km, 66.8° (Epoch: 30 November)

Event Time Altitude Azimuth Distance (km) Brightness Sun altitude
Rises 00:28:16 0° 313° (NW) 3,698 11.4 -43.1°
Enters shadow 00:30:32 - 306° (NW) 2,930 10.7 -43.1°
Reaches altitude 10° 00:31:06 10° 304° (NW) 2,747 - -43.1°
Maximum altitude 00:36:41 32° 244° (WSW) 1,605 - -43.0°
Drops below altitude 10° 00:42:12 10° 183° (S) 2,706 - -42.8°
Sets 00:44:58 0° 174° (S) 3,635 - -42.7°
